Flag for Mauritania Weather past 2 weeks in Nouadhibou, Mauritania

Now
70 °F

Sandstorm.


Feels Like: 70 °F
Forecast: N/A
Wind: 20 mph from Northwest

Location: Nouadhibou Airport

Current Time: Jul 29, 2014 at 10:03:42 PM

Latest Report: Jul 29, 2014 at 9:00 PM


Visibility: 4 mi

Pressure: 29.86 "Hg

Humidity: 83%

Dew point: 64 °F

Location of NouadhibouLocation

Historic Weather in Nouadhibou — Graph

°F

Nouadhibou temperature yesterday

Maximum temperature yesterday: 84 °F (at 12:00 PM)
Minimum temperature yesterday: 68 °F (at 2:00 AM)
Average temperature yesterday: 73 °F

Past Weeks' High & Low Weather Summary

 TemperatureHumidityPressure
High86 °F (Jul 24, 1:00 PM)94% (Jul 16, 5:00 AM)30.04 "Hg (Jul 16, 5:00 AM)
Low66 °F (Jul 15, 4:00 AM)43% (Jul 24, 1:00 PM)29.83 "Hg (Jul 29, 6:00 PM)
Average72 °F75%29.94 "Hg
* Reported Jul 14 9:00 PM — Jul 29 9:00 PM, Nouadhibou, Weather by CustomWeather, © 2014

Note: Actual official high and low records may vary slightly from our data, if they occured in-between our weather recording intervals... More about our weather records

Advertising

Nouadhibou weather history for previous 24 hours

 ConditionsComfort  
Time TempWeatherWind HumidityBarometerVisibility
9:00 PM
Jul 29
70 °FSandstorm.20 mph83%29.86 "Hg4 mi
8:00 PM70 °FSandstorm.21 mph83%29.86 "Hg2 mi
7:00 PM72 °FSandstorm.24 mph78%29.83 "Hg2 mi
6:00 PM73 °FSandstorm.23 mph69%29.83 "Hg2 mi
5:00 PM73 °FSandstorm.23 mph69%29.86 "Hg2 mi
4:00 PM75 °FSandstorm.23 mph69%29.86 "Hg2 mi
3:00 PM75 °FSandstorm.22 mph69%29.86 "Hg2 mi
2:00 PM75 °FClear.18 mph69%29.89 "Hg5 mi
1:00 PM77 °FClear.16 mph65%29.89 "Hg5 mi
12:00 PM79 °FClear.13 mph61%29.89 "Hg5 mi
11:00 AM81 °FClear.22 mph58%29.92 "Hg5 mi
10:00 AM75 °FPassing clouds.22 mph69%29.92 "Hg5 mi
9:00 AM72 °FPassing clouds.17 mph78%29.89 "Hg5 mi
8:00 AM68 °FClear.18 mph83%29.89 "Hg5 mi
7:00 AM68 °FClear.17 mph83%29.89 "Hg5 mi
6:00 AM68 °FPassing clouds.20 mph83%29.86 "Hg4 mi
5:00 AM68 °FPassing clouds.21 mph83%29.86 "Hg4 mi
4:00 AM68 °FPassing clouds.21 mph83%29.86 "Hg4 mi
3:00 AM68 °FPassing clouds.20 mph83%29.89 "Hg4 mi
2:00 AM70 °FClear.20 mph78%29.89 "Hg4 mi
1:00 AM70 °FSandstorm.22 mph78%29.92 "Hg4 mi
12:00 AM70 °FSandstorm.21 mph78%29.92 "Hg4 mi
11:00 PM
Jul 28
72 °FSandstorm.21 mph73%29.92 "Hg4 mi
10:00 PM70 °FSandstorm.20 mph78%29.92 "Hg4 mi
Weather by CustomWeather, © 2014

See weather overviewHow to use our weather pages